STARLINK-1363, 45568

Orbit data source: Space-Track

STARLINK-1363, 45568 is a payload satellite owned by SpaceX/Seattle (US) in LEO that was launched on Wed, 22 Apr 2020 UTC via an FALCON 9 launch vehicle from the Air Force Eastern Test Range (AFETR). Payload-class satellites include a variety of spacecraft equipped with specific instruments for various scientific and technological missions. These include communications satellites like Starlink; space stations such as the ISS; scientific satellites like the Hubble; Earth observation satellites from companies like Planet Labs, Umbra, and HawkEye 360; GPS; miniature CubeSats for education and research; and military/defense satellites.

Loading next visibility...
Identifier
45568, 2020-025AP
Orbit
LEO
Last TLE update
23 hours ago
Origin
Manufacturer
SpaceX/Seattle
Mission
Operational Commercial Communications
Bus & Motor
STARLINK, Unknown motor
Mass
260 kg wet, ~248 kg dry
Launch date (UTC)
2020-04-22 (5 years ago)
Launch vehicle
FALCON 9
Launch site
Air Force Eastern Test Range (AFETR)
Object type
Payload
Rocket body
Debris
Shape & HBR
Box + 1 Pan, 8.86 m
Radar Cross Section
13.562 m², Large (>1 m²)

Expand to show TLE details & history

TLE from 23 hours ago
0 STARLINK-1363
1 45568U 20025AP  25119.08978370  .00000424  00000-0  47378-4 0  9990
2 45568  53.0558  59.1542 0001478 101.7835 258.3320 15.06409870277343
Epoch: 2025-04-29T02:09Z
Definitive object data (Epoch: 2025-04-29T02:09:17.311Z)
Latitude
-0.00002°
Longitude
169.5376°
Altitude
548.268 km
Speed
7.589 km/s
True Right ascension
03h 56m 37s
True Declination
0° 00' 00"
Sunlit
Object was in daylight at TLE epoch
Visualization TLE readout
Latitude
42.98705°
Longitude
-150.48504°
Altitude
550.701 km
Speed
7.592 km/s
Apparent Right ascension
01h 44m 16s
Apparent Declination
16° 31' 38"
Sunlit
Object is in daylight
Visualization observer readout
Local Sidereal Time
08:14:41
Azimuth
287.498° WNW
Elevation
4.89°
Doppler factor
1
Orbital elements
Apogee altitude
548.475 km
Perigee altitude
546.428 km
Semi-major axis
6,925.589 km
Eccentricity
0.0001478
Inclination
53.0558°
RAAN
59.1542°
Arg. of periapsis
101.7835°
True anomaly
258.31541°
Mean anomaly
258.332°
Eccentric anomaly
258.32371°
Mean motion
3.76581 °/min
BSTAR
0.000047378
Orbital period
95.6 mins
Loading maneuver chart data...
Loading SW <> Apogee altitude chart data...
Loading historical data...
Loading historical data...
Loading historical data...
Loading historical data...
Loading historical data...
Loading historical data...
Loading historical data...

STARLINK-1363 Visibility forecast

Observer location: undefined°, undefined°

Span
Click to sort rows by Start time (UTC) header in descending order
Start Az.
Max El. time (UTC)
Max El. Az.
Max El.
End time (UTC)
End Az.
4 mins2025-04-30 00:44:16.605Z306.236° NW2025-04-30 00:46:16.605Z338.792° N16.773°2025-04-30 00:48:16.605Z13.65° NNE
5 mins2025-04-30 04:06:16.605Z347.289° N2025-04-30 04:08:16.605Z31.91° NE23.56°2025-04-30 04:11:16.605Z82.03° E
6 mins2025-04-30 05:45:16.605Z297.928° NW2025-04-30 05:48:16.605Z189.886° SSW39.415°2025-04-30 05:51:16.605Z145.521° SSE
4 mins2025-04-30 21:19:16.605Z161.498° S2025-04-30 21:20:16.605Z140.092° SSE22.718°2025-04-30 21:23:16.605Z81.292° E
6 mins2025-04-30 22:57:16.605Z258.267° W2025-04-30 23:00:16.605Z338.683° N35.545°2025-04-30 23:03:16.605Z37.437° NE
|